Tracking 28091 objects as of 29-Sep-2023
HD Live streaming from Space Station
objects crossing your sky now

FLOCK 4X 15

Track FLOCK 4X 15 now!
10-day predictions


NORAD ID: 51010
Int'l Code: 2022-002AC
Perigee: 460.1 km
Apogee: 472.5 km
Inclination: 97.4 °
Period: 93.8 minutes
Semi major axis: 6837 km
RCS: Unknown
Launch date: January 13, 2022
Source: United States (US)
Launch site: AIR FORCE EASTERN TEST RANGE (AFETR)
Your satellite tracking list
Your tracking list is empty




NASA's NSSDC Master Catalog

Two Line Element Set (TLE):
1 51010U 22002AC  23272.44240308  .00028596  00000-0  82592-3 0  9993
2 51010  97.4301 341.8684 0009088 202.4565 157.6282 15.35584540 94820
Source of the keplerian elements: AFSPC